datetime,total release
1972-10-01,48.0
1972-10-02,30.0
1972-10-03,30.0
1972-10-04,30.0
1972-10-05,15.0
1972-10-06,15.0
1972-10-07,15.0
1972-10-08,3.0
1972-10-09,3.0
1972-10-10,3.0
1972-10-11,3.0
1972-10-12,0.0
1972-10-13,0.0
1972-10-14,3.0
1972-10-15,3.0
1972-10-16,5.0
1972-10-17,5.0
1972-10-18,5.0
1972-10-19,5.0
1972-10-20,5.0
1972-10-21,0.0
1972-10-22,0.0
1972-10-23,0.0
1972-10-24,0.0
1972-10-25,0.0
1972-10-26,0.0
1972-10-27,0.0
1972-10-28,0.0
1972-10-29,0.0
1972-10-30,0.0
1972-10-31,0.0
1972-11-01,8.0
1972-11-02,8.0
1972-11-03,8.0
1972-11-04,8.0
1972-11-05,8.0
1972-11-06,4.0
1972-11-07,4.0
1972-11-08,4.0
1972-11-09,4.0
1972-11-10,4.0
1972-11-11,4.0
1972-11-12,4.0
1972-11-13,4.0
1972-11-14,0.0
1972-11-15,0.0
1972-11-16,5.0
1972-11-17,5.0
1972-11-18,5.0
1972-11-19,5.0
1972-11-20,5.0
1972-11-21,5.0
1972-11-22,5.0
1972-11-23,15.0
1972-11-24,15.0
1972-11-25,15.0
1972-11-26,15.0
1972-11-27,15.0
1972-11-28,7.0
1972-11-29,7.0
1972-11-30,7.0
1972-12-01,7.0
1972-12-02,7.0
1972-12-03,7.0
1972-12-04,7.0
1972-12-05,7.0
1972-12-06,7.0
1972-12-07,7.0
1972-12-08,7.0
1972-12-09,7.0
1972-12-10,7.0
1972-12-11,7.0
1972-12-12,7.0
1972-12-13,7.0
1972-12-14,7.0
1972-12-15,7.0
1972-12-16,7.0
1972-12-17,7.0
1972-12-18,7.0
1972-12-19,7.0
1972-12-20,7.0
1972-12-21,7.0
1972-12-22,7.0
1972-12-23,7.0
1972-12-24,7.0
1972-12-25,7.0
1972-12-26,7.0
1972-12-27,7.0
1972-12-28,7.0
1972-12-29,7.0
1972-12-30,7.0
1972-12-31,7.0
1973-01-01,7.0
1973-01-02,7.0
1973-01-03,5.0
1973-01-04,5.0
1973-01-05,5.0
1973-01-06,5.0
1973-01-07,5.0
1973-01-08,5.0
1973-01-09,5.0
1973-01-10,5.0
1973-01-11,5.0
1973-01-12,5.0
1973-01-13,5.0
1973-01-14,5.0
1973-01-15,5.0
1973-01-16,5.0
1973-01-17,5.0
1973-01-18,5.0
1973-01-19,5.0
1973-01-20,5.0
1973-01-21,5.0
1973-01-22,5.0
1973-01-23,5.0
1973-01-24,5.0
1973-01-25,5.0
1973-01-26,5.0
1973-01-27,5.0
1973-01-28,5.0
1973-01-29,5.0
1973-01-30,5.0
1973-01-31,5.0
1973-02-01,5.0
1973-02-02,5.0
1973-02-03,5.0
1973-02-04,5.0
1973-02-05,5.0
1973-02-06,5.0
1973-02-07,5.0
1973-02-08,5.0
1973-02-09,5.0
1973-02-10,5.0
1973-02-11,5.0
1973-02-12,5.0
1973-02-13,5.0
1973-02-14,5.0
1973-02-15,5.0
1973-02-16,5.0
1973-02-17,5.0
1973-02-18,5.0
1973-02-19,5.0
1973-02-20,5.0
1973-02-21,5.0
1973-02-22,5.0
1973-02-23,5.0
1973-02-24,5.0
1973-02-25,5.0
1973-02-26,5.0
1973-02-27,5.0
1973-02-28,5.0
1973-03-01,5.0
1973-03-02,5.0
1973-03-03,5.0
1973-03-04,5.0
1973-03-05,5.0
1973-03-06,5.0
1973-03-07,5.0
1973-03-08,5.0
1973-03-09,5.0
1973-03-10,5.0
1973-03-11,5.0
1973-03-12,5.0
1973-03-13,5.0
1973-03-14,5.0
1973-03-15,5.0
1973-03-16,5.0
1973-03-17,5.0
1973-03-18,5.0
1973-03-19,5.0
1973-03-20,5.0
1973-03-21,5.0
1973-03-22,5.0
1973-03-23,5.0
1973-03-24,5.0
1973-03-25,5.0
1973-03-26,5.0
1973-03-27,5.0
1973-03-28,5.0
1973-03-29,5.0
1973-03-30,5.0
1973-03-31,5.0
1973-04-01,5.0
1973-04-02,5.0
1973-04-03,5.0
1973-04-04,5.0
1973-04-05,5.0
1973-04-06,5.0
1973-04-07,5.0
1973-04-08,5.0
1973-04-09,5.0
1973-04-10,5.0
1973-04-11,5.0
1973-04-12,5.0
1973-04-13,5.0
1973-04-14,5.0
1973-04-15,5.0
1973-04-16,5.0
1973-04-17,0.0
1973-04-18,0.0
1973-04-19,0.0
1973-04-20,0.0
1973-04-21,0.0
1973-04-22,0.0
1973-04-23,0.0
1973-04-24,0.0
1973-04-25,0.0
1973-04-26,0.0
1973-04-27,0.0
1973-04-28,0.0
1973-04-29,0.0
1973-04-30,0.0
1973-05-01,0.0
1973-05-02,0.0
1973-05-03,0.0
1973-05-04,0.0
1973-05-05,0.0
1973-05-06,0.0
1973-05-07,0.0
1973-05-08,0.0
1973-05-09,0.0
1973-05-10,0.0
1973-05-11,0.0
1973-05-12,0.0
1973-05-13,0.0
1973-05-14,0.0
1973-05-15,0.0
1973-05-16,0.0
1973-05-17,0.0
1973-05-18,0.0
1973-05-19,0.0
1973-05-20,0.0
1973-05-21,0.0
1973-05-22,0.0
1973-05-23,0.0
1973-05-24,0.0
1973-05-25,0.0
1973-05-26,0.0
1973-05-27,0.0
1973-05-28,0.0
1973-05-29,0.0
1973-05-30,0.0
1973-05-31,0.0
1973-06-01,0.0
1973-06-02,25.0
1973-06-03,25.0
1973-06-04,25.0
1973-06-05,25.0
1973-06-06,25.0
1973-06-07,25.0
1973-06-08,25.0
1973-06-09,25.0
1973-06-10,25.0
1973-06-11,25.0
1973-06-12,25.0
1973-06-13,25.0
1973-06-14,25.0
1973-06-15,25.0
1973-06-16,25.0
1973-06-17,25.0
1973-06-18,25.0
1973-06-19,25.0
1973-06-20,25.0
1973-06-21,25.0
1973-06-22,25.0
1973-06-23,25.0
1973-06-24,25.0
1973-06-25,40.0
1973-06-26,40.0
1973-06-27,65.0
1973-06-28,75.0
1973-06-29,80.0
1973-06-30,100.0
1973-07-01,100.0
1973-07-02,115.0
1973-07-03,115.0
1973-07-04,135.0
1973-07-05,170.0
1973-07-06,170.0
1973-07-07,170.0
1973-07-08,170.0
1973-07-09,170.0
1973-07-10,175.0
1973-07-11,175.0
1973-07-12,175.0
1973-07-13,215.0
1973-07-14,215.0
1973-07-15,180.0
1973-07-16,180.0
1973-07-17,180.0
1973-07-18,165.0
1973-07-19,165.0
1973-07-20,155.0
1973-07-21,85.0
1973-07-22,85.0
1973-07-23,80.0
1973-07-24,80.0
1973-07-25,80.0
1973-07-26,80.0
1973-07-27,80.0
1973-07-28,145.0
1973-07-29,145.0
1973-07-30,145.0
1973-07-31,145.0
1973-08-01,175.0
1973-08-02,175.0
1973-08-03,175.0
1973-08-04,175.0
1973-08-05,175.0
1973-08-06,145.0
1973-08-07,145.0
1973-08-08,145.0
1973-08-09,145.0
1973-08-10,145.0
1973-08-11,170.0
1973-08-12,182.0
1973-08-13,182.0
1973-08-14,182.0
1973-08-15,182.0
1973-08-16,182.0
1973-08-17,192.0
1973-08-18,192.0
1973-08-19,192.0
1973-08-20,192.0
1973-08-21,182.0
1973-08-22,102.0
1973-08-23,152.0
1973-08-24,142.0
1973-08-25,142.0
1973-08-26,157.0
1973-08-27,157.0
1973-08-28,137.0
1973-08-29,137.0
1973-08-30,137.0
1973-08-31,137.0
1973-09-01,137.0
1973-09-02,132.0
1973-09-03,120.0
1973-09-04,85.0
1973-09-05,85.0
1973-09-06,85.0
1973-09-07,0.0
1973-09-08,95.0
1973-09-09,95.0
1973-09-10,115.0
1973-09-11,115.0
1973-09-12,115.0
1973-09-13,115.0
1973-09-14,115.0
1973-09-15,145.0
1973-09-16,150.0
1973-09-17,150.0
1973-09-18,145.0
1973-09-19,145.0
1973-09-20,145.0
1973-09-21,145.0
1973-09-22,145.0
1973-09-23,151.0
1973-09-24,0.0
1973-09-25,0.0
1973-09-26,151.0
1973-09-27,141.0
1973-09-28,131.0
1973-09-29,131.0
1973-09-30,76.0
1973-10-01,76.0
1973-10-02,76.0
1973-10-03,76.0
1973-10-04,76.0
1973-10-05,76.0
1973-10-06,76.0
1973-10-07,76.0
1973-10-08,76.0
1973-10-09,66.0
1973-10-10,6.0
1973-10-11,31.0
1973-10-12,31.0
1973-10-13,31.0
1973-10-14,31.0
1973-10-15,31.0
1973-10-16,31.0
1973-10-17,31.0
1973-10-18,31.0
1973-10-19,31.0
1973-10-20,31.0
1973-10-21,21.0
1973-10-22,21.0
1973-10-23,11.0
1973-10-24,11.0
1973-10-25,11.0
1973-10-26,5.0
1973-10-27,0.0
1973-10-28,0.0
1973-10-29,0.0
1973-10-30,0.0
1973-10-31,10.0
1973-11-01,10.0
1973-11-02,10.0
1973-11-03,10.0
1973-11-04,20.0
1973-11-05,20.0
1973-11-06,20.0
1973-11-07,20.0
1973-11-08,20.0
1973-11-09,20.0
1973-11-10,15.0
1973-11-11,15.0
1973-11-12,15.0
1973-11-13,15.0
1973-11-14,15.0
1973-11-15,15.0
1973-11-16,15.0
1973-11-17,15.0
1973-11-18,15.0
1973-11-19,15.0
1973-11-20,15.0
1973-11-21,15.0
1973-11-22,15.0
1973-11-23,15.0
1973-11-24,12.0
1973-11-25,12.0
1973-11-26,12.0
1973-11-27,12.0
1973-11-28,10.0
1973-11-29,10.0
1973-11-30,10.0
1973-12-01,10.0
1973-12-02,10.0
1973-12-03,10.0
1973-12-04,10.0
1973-12-05,10.0
1973-12-06,10.0
1973-12-07,10.0
1973-12-08,7.0
1973-12-09,7.0
1973-12-10,7.0
1973-12-11,7.0
1973-12-12,7.0
1973-12-13,7.0
1973-12-14,7.0
1973-12-15,7.0
1973-12-16,7.0
1973-12-17,7.0
1973-12-18,7.0
1973-12-19,7.0
1973-12-20,7.0
1973-12-21,7.0
1973-12-22,7.0
1973-12-23,7.0
1973-12-24,7.0
1973-12-25,7.0
1973-12-26,7.0
1973-12-27,7.0
1973-12-28,7.0
1973-12-29,7.0
1973-12-30,7.0
1973-12-31,7.0
1974-01-01,7.0
1974-01-02,7.0
1974-01-03,7.0
1974-01-04,7.0
1974-01-05,7.0
1974-01-06,7.0
1974-01-07,7.0
1974-01-08,7.0
1974-01-09,7.0
1974-01-10,7.0
1974-01-11,7.0
1974-01-12,7.0
1974-01-13,7.0
1974-01-14,7.0
1974-01-15,7.0
1974-01-16,7.0
1974-01-17,7.0
1974-01-18,7.0
1974-01-19,7.0
1974-01-20,7.0
1974-01-21,7.0
1974-01-22,7.0
1974-01-23,7.0
1974-01-24,7.0
1974-01-25,7.0
1974-01-26,7.0
1974-01-27,7.0
1974-01-28,7.0
1974-01-29,7.0
1974-01-30,7.0
1974-01-31,7.0
1974-02-01,7.0
1974-02-02,7.0
1974-02-03,7.0
1974-02-04,7.0
1974-02-05,7.0
1974-02-06,7.0
1974-02-07,7.0
1974-02-08,7.0
1974-02-09,7.0
1974-02-10,7.0
1974-02-11,7.0
1974-02-12,7.0
1974-02-13,7.0
1974-02-14,7.0
1974-02-15,7.0
1974-02-16,7.0
1974-02-17,7.0
1974-02-18,7.0
1974-02-19,7.0
1974-02-20,7.0
1974-02-21,7.0
1974-02-22,7.0
1974-02-23,7.0
1974-02-24,7.0
1974-02-25,7.0
1974-02-26,7.0
1974-02-27,7.0
1974-02-28,7.0
1974-03-01,7.0
1974-03-02,7.0
1974-03-03,7.0
1974-03-04,7.0
1974-03-05,7.0
1974-03-06,7.0
1974-03-07,7.0
1974-03-08,7.0
1974-03-09,7.0
1974-03-10,7.0
1974-03-11,7.0
1974-03-12,7.0
1974-03-13,7.0
1974-03-14,7.0
1974-03-15,7.0
1974-03-16,7.0
1974-03-17,7.0
1974-03-18,7.0
1974-03-19,7.0
1974-03-20,7.0
1974-03-21,7.0
1974-03-22,7.0
1974-03-23,7.0
1974-03-24,7.0
1974-03-25,7.0
1974-03-26,7.0
1974-03-27,7.0
1974-03-28,7.0
1974-03-29,7.0
1974-03-30,7.0
1974-03-31,7.0
1974-04-01,4.0
1974-04-02,4.0
1974-04-03,4.0
1974-04-04,4.0
1974-04-05,4.0
1974-04-06,4.0
1974-04-07,4.0
1974-04-08,4.0
1974-04-09,14.0
1974-04-10,49.0
1974-04-11,29.0
1974-04-12,19.0
1974-04-13,9.0
1974-04-14,9.0
1974-04-15,24.0
1974-04-16,54.0
1974-04-17,50.0
1974-04-18,50.0
1974-04-19,55.0
1974-04-20,55.0
1974-04-21,40.0
1974-04-22,40.0
1974-04-23,40.0
1974-04-24,65.0
1974-04-25,50.0
1974-04-26,25.0
1974-04-27,25.0
1974-04-28,25.0
1974-04-29,55.0
1974-04-30,80.0
1974-05-01,100.0
1974-05-02,90.0
1974-05-03,75.0
1974-05-04,95.0
1974-05-05,95.0
1974-05-06,70.0
1974-05-07,50.0
1974-05-08,10.0
1974-05-09,50.0
1974-05-10,30.0
1974-05-11,0.0
1974-05-12,10.0
1974-05-13,65.0
1974-05-14,75.0
1974-05-15,75.0
1974-05-16,115.0
1974-05-17,125.0
1974-05-18,133.0
1974-05-19,143.0
1974-05-20,143.0
1974-05-21,143.0
1974-05-22,158.0
1974-05-23,173.0
1974-05-24,173.0
1974-05-25,173.0
1974-05-26,173.0
1974-05-27,173.0
1974-05-28,173.0
1974-05-29,193.0
1974-05-30,193.0
1974-05-31,193.0
1974-06-01,203.0
1974-06-02,203.0
1974-06-03,203.0
1974-06-04,148.0
1974-06-05,158.0
1974-06-06,168.0
1974-06-07,168.0
1974-06-08,168.0
1974-06-09,168.0
1974-06-10,168.0
1974-06-11,168.0
1974-06-12,168.0
1974-06-13,178.0
1974-06-14,185.0
1974-06-15,185.0
1974-06-16,185.0
1974-06-17,185.0
1974-06-18,198.0
1974-06-19,198.0
1974-06-20,188.0
1974-06-21,188.0
1974-06-22,188.0
1974-06-23,188.0
1974-06-24,188.0
1974-06-25,188.0
1974-06-26,198.0
1974-06-27,213.0
1974-06-28,213.0
1974-06-29,200.0
1974-06-30,200.0
1974-07-01,200.0
1974-07-02,190.0
1974-07-03,200.0
1974-07-04,210.0
1974-07-05,210.0
1974-07-06,215.0
1974-07-07,215.0
1974-07-08,215.0
1974-07-09,215.0
1974-07-10,215.0
1974-07-11,205.0
1974-07-12,205.0
1974-07-13,205.0
1974-07-14,205.0
1974-07-15,205.0
1974-07-16,225.0
1974-07-17,225.0
1974-07-18,100.0
1974-07-19,100.0
1974-07-20,130.0
1974-07-21,130.0
1974-07-22,130.0
1974-07-23,145.0
1974-07-24,165.0
1974-07-25,175.0
1974-07-26,175.0
1974-07-27,175.0
1974-07-28,155.0
1974-07-29,143.0
1974-07-30,133.0
1974-07-31,133.0
1974-08-01,133.0
1974-08-02,133.0
1974-08-03,137.0
1974-08-04,137.0
1974-08-05,137.0
1974-08-06,137.0
1974-08-07,137.0
1974-08-08,137.0
1974-08-09,150.0
1974-08-10,150.0
1974-08-11,150.0
1974-08-12,150.0
1974-08-13,154.0
1974-08-14,154.0
1974-08-15,165.0
1974-08-16,165.0
1974-08-17,165.0
1974-08-18,165.0
1974-08-19,165.0
1974-08-20,165.0
1974-08-21,165.0
1974-08-22,171.0
1974-08-23,171.0
1974-08-24,171.0
1974-08-25,181.0
1974-08-26,181.0
1974-08-27,182.0
1974-08-28,175.0
1974-08-29,175.0
1974-08-30,175.0
1974-08-31,175.0
1974-09-01,175.0
1974-09-02,175.0
1974-09-03,159.0
1974-09-04,159.0
1974-09-05,144.0
1974-09-06,134.0
1974-09-07,134.0
1974-09-08,134.0
1974-09-09,115.0
1974-09-10,98.0
1974-09-11,98.0
1974-09-12,98.0
1974-09-13,98.0
1974-09-14,85.0
1974-09-15,78.0
1974-09-16,73.0
1974-09-17,73.0
1974-09-18,68.0
1974-09-19,68.0
1974-09-20,68.0
1974-09-21,48.0
1974-09-22,48.0
1974-09-23,48.0
1974-09-24,48.0
1974-09-25,48.0
1974-09-26,42.0
1974-09-27,52.0
1974-09-28,52.0
1974-09-29,52.0
1974-09-30,52.0
1974-10-01,47.0
1974-10-02,32.0
1974-10-03,32.0
1974-10-04,32.0
1974-10-05,32.0
1974-10-06,28.0
1974-10-07,28.0
1974-10-08,18.0
1974-10-09,18.0
1974-10-10,18.0
1974-10-11,18.0
1974-10-12,18.0
1974-10-13,18.0
1974-10-14,18.0
1974-10-15,18.0
1974-10-16,18.0
1974-10-17,18.0
1974-10-18,13.0
1974-10-19,13.0
1974-10-20,13.0
1974-10-21,13.0
1974-10-22,13.0
1974-10-23,13.0
1974-10-24,13.0
1974-10-25,13.0
1974-10-26,13.0
1974-10-27,13.0
1974-10-28,13.0
1974-10-29,13.0
1974-10-30,13.0
1974-10-31,13.0
1974-11-01,13.0
1974-11-02,13.0
1974-11-03,13.0
1974-11-04,13.0
1974-11-05,13.0
1974-11-06,13.0
1974-11-07,13.0
1974-11-08,13.0
1974-11-09,13.0
1974-11-10,13.0
1974-11-11,13.0
1974-11-12,13.0
1974-11-13,13.0
1974-11-14,13.0
1974-11-15,13.0
1974-11-16,13.0
1974-11-17,13.0
1974-11-18,13.0
1974-11-19,13.0
1974-11-20,13.0
1974-11-21,13.0
1974-11-22,13.0
1974-11-23,13.0
1974-11-24,13.0
1974-11-25,18.0
1974-11-26,18.0
1974-11-27,18.0
1974-11-28,18.0
1974-11-29,18.0
1974-11-30,18.0
1974-12-01,18.0
1974-12-02,18.0
1974-12-03,18.0
1974-12-04,18.0
1974-12-05,18.0
1974-12-06,18.0
1974-12-07,18.0
1974-12-08,18.0
1974-12-09,18.0
1974-12-10,18.0
1974-12-11,17.0
1974-12-12,17.0
1974-12-13,16.0
1974-12-14,16.0
1974-12-15,16.0
1974-12-16,16.0
1974-12-17,16.0
1974-12-18,16.0
1974-12-19,16.0
1974-12-20,16.0
1974-12-21,16.0
1974-12-22,16.0
1974-12-23,16.0
1974-12-24,16.0
1974-12-25,16.0
1974-12-26,16.0
1974-12-27,11.0
1974-12-28,11.0
1974-12-29,11.0
1974-12-30,11.0
1974-12-31,11.0
1975-01-01,11.0
1975-01-02,11.0
1975-01-03,11.0
1975-01-04,11.0
1975-01-05,11.0
1975-01-06,11.0
1975-01-07,11.0
1975-01-08,11.0
1975-01-09,11.0
1975-01-10,11.0
1975-01-11,11.0
1975-01-12,11.0
1975-01-13,11.0
1975-01-14,11.0
1975-01-15,11.0
1975-01-16,11.0
1975-01-17,11.0
1975-01-18,11.0
1975-01-19,11.0
1975-01-20,11.0
1975-01-21,11.0
1975-01-22,11.0
1975-01-23,11.0
1975-01-24,11.0
1975-01-25,11.0
1975-01-26,11.0
1975-01-27,11.0
1975-01-28,11.0
1975-01-29,11.0
1975-01-30,11.0
1975-01-31,11.0
1975-02-01,11.0
1975-02-02,11.0
1975-02-03,11.0
1975-02-04,11.0
1975-02-05,11.0
1975-02-06,11.0
1975-02-07,11.0
1975-02-08,11.0
1975-02-09,11.0
1975-02-10,11.0
1975-02-11,11.0
1975-02-12,11.0
1975-02-13,11.0
1975-02-14,11.0
1975-02-15,7.0
1975-02-16,7.0
1975-02-17,7.0
1975-02-18,7.0
1975-02-19,7.0
1975-02-20,10.0
1975-02-21,10.0
1975-02-22,10.0
1975-02-23,10.0
1975-02-24,10.0
1975-02-25,10.0
1975-02-26,10.0
1975-02-27,10.0
1975-02-28,10.0
1975-03-01,10.0
1975-03-02,10.0
1975-03-03,10.0
1975-03-04,5.0
1975-03-05,5.0
1975-03-06,5.0
1975-03-07,5.0
1975-03-08,5.0
1975-03-09,5.0
1975-03-10,5.0
1975-03-11,5.0
1975-03-12,5.0
1975-03-13,5.0
1975-03-14,10.0
1975-03-15,10.0
1975-03-16,10.0
1975-03-17,10.0
1975-03-18,10.0
1975-03-19,10.0
1975-03-20,10.0
1975-03-21,10.0
1975-03-22,10.0
1975-03-23,10.0
1975-03-24,10.0
1975-03-25,10.0
1975-03-26,10.0
1975-03-27,10.0
1975-03-28,20.0
1975-03-29,20.0
1975-03-30,20.0
1975-03-31,20.0
1975-04-01,20.0
1975-04-02,20.0
1975-04-03,20.0
1975-04-04,15.0
1975-04-05,15.0
1975-04-06,10.0
1975-04-07,10.0
1975-04-08,5.0
1975-04-09,5.0
1975-04-10,5.0
1975-04-11,5.0
1975-04-12,5.0
1975-04-13,5.0
1975-04-14,10.0
1975-04-15,0.0
1975-04-16,0.0
1975-04-17,0.0
1975-04-18,0.0
1975-04-19,0.0
1975-04-20,0.0
1975-04-21,0.0
1975-04-22,0.0
1975-04-23,0.0
1975-04-24,0.0
1975-04-25,0.0
1975-04-26,0.0
1975-04-27,0.0
1975-04-28,0.0
1975-04-29,0.0
1975-04-30,0.0
1975-05-01,0.0
1975-05-02,0.0
1975-05-03,0.0
1975-05-04,0.0
1975-05-05,0.0
1975-05-06,0.0
1975-05-07,0.0
1975-05-08,0.0
1975-05-09,0.0
1975-05-10,20.0
1975-05-11,20.0
1975-05-12,20.0
1975-05-13,0.0
1975-05-14,0.0
1975-05-15,0.0
1975-05-16,0.0
1975-05-17,0.0
1975-05-18,0.0
1975-05-19,0.0
1975-05-20,0.0
1975-05-21,0.0
1975-05-22,0.0
1975-05-23,0.0
1975-05-24,0.0
1975-05-25,0.0
1975-05-26,0.0
1975-05-27,0.0
1975-05-28,0.0
1975-05-29,0.0
1975-05-30,0.0
1975-05-31,25.0
1975-06-01,25.0
1975-06-02,0.0
1975-06-03,50.0
1975-06-04,50.0
1975-06-05,10.0
1975-06-06,100.0
1975-06-07,100.0
1975-06-08,200.0
1975-06-09,200.0
1975-06-10,200.0
1975-06-11,200.0
1975-06-12,200.0
1975-06-13,200.0
1975-06-14,100.0
1975-06-15,100.0
1975-06-16,100.0
1975-06-17,100.0
1975-06-18,100.0
1975-06-19,100.0
1975-06-20,100.0
1975-06-21,100.0
1975-06-22,100.0
1975-06-23,100.0
1975-06-24,0.0
1975-06-25,0.0
1975-06-26,0.0
1975-06-27,0.0
1975-06-28,0.0
1975-06-29,0.0
1975-06-30,0.0
1975-07-01,0.0
1975-07-02,0.0
1975-07-03,0.0
1975-07-04,0.0
1975-07-05,0.0
1975-07-06,0.0
1975-07-07,20.0
1975-07-08,40.0
1975-07-09,40.0
1975-07-10,60.0
1975-07-11,80.0
1975-07-12,80.0
1975-07-13,100.0
1975-07-14,100.0
1975-07-15,120.0
1975-07-16,140.0
1975-07-17,100.0
1975-07-18,100.0
1975-07-19,110.0
1975-07-20,120.0
1975-07-21,130.0
1975-07-22,130.0
1975-07-23,130.0
1975-07-24,130.0
1975-07-25,140.0
1975-07-26,150.0
1975-07-27,150.0
1975-07-28,150.0
1975-07-29,175.0
1975-07-30,175.0
1975-07-31,185.0
1975-08-01,175.0
1975-08-02,175.0
1975-08-03,175.0
1975-08-04,175.0
1975-08-05,175.0
1975-08-06,190.0
1975-08-07,196.0
1975-08-08,196.0
1975-08-09,211.0
1975-08-10,218.0
1975-08-11,198.0
1975-08-12,205.0
1975-08-13,205.0
1975-08-14,215.0
1975-08-15,215.0
1975-08-16,220.0
1975-08-17,205.0
1975-08-18,205.0
1975-08-19,205.0
1975-08-20,195.0
1975-08-21,195.0
1975-08-22,195.0
1975-08-23,195.0
1975-08-24,195.0
1975-08-25,195.0
1975-08-26,195.0
1975-08-27,195.0
1975-08-28,195.0
1975-08-29,195.0
1975-08-30,195.0
1975-08-31,195.0
1975-09-01,195.0
1975-09-02,165.0
1975-09-03,165.0
1975-09-04,165.0
1975-09-05,165.0
1975-09-06,165.0
1975-09-07,165.0
1975-09-08,165.0
1975-09-09,165.0
1975-09-10,175.0
1975-09-11,165.0
1975-09-12,155.0
1975-09-13,130.0
1975-09-14,120.0
1975-09-15,120.0
1975-09-16,95.0
1975-09-17,95.0
1975-09-18,85.0
1975-09-19,85.0
1975-09-20,85.0
1975-09-21,85.0
1975-09-22,85.0
1975-09-23,85.0
1975-09-24,85.0
1975-09-25,85.0
1975-09-26,85.0
1975-09-27,85.0
1975-09-28,100.0
1975-09-29,100.0
1975-09-30,100.0
1975-10-01,100.0
1975-10-02,10.0
1975-10-03,85.0
1975-10-04,85.0
1975-10-05,85.0
1975-10-06,85.0
1975-10-07,73.0
1975-10-08,60.0
1975-10-09,50.0
1975-10-10,50.0
1975-10-11,50.0
1975-10-12,50.0
1975-10-13,50.0
1975-10-14,45.0
1975-10-15,45.0
1975-10-16,45.0
1975-10-17,40.0
1975-10-18,35.0
1975-10-19,15.0
1975-10-20,15.0
1975-10-21,15.0
1975-10-22,15.0
1975-10-23,10.0
1975-10-24,5.0
1975-10-25,5.0
1975-10-26,10.0
1975-10-27,10.0
1975-10-28,10.0
1975-10-29,10.0
1975-10-30,10.0
1975-10-31,10.0
1975-11-01,10.0
1975-11-02,10.0
1975-11-03,10.0
1975-11-04,10.0
1975-11-05,10.0
1975-11-06,10.0
1975-11-07,10.0
1975-11-08,10.0
1975-11-09,10.0
1975-11-10,10.0
1975-11-11,10.0
1975-11-12,10.0
1975-11-13,10.0
1975-11-14,10.0
1975-11-15,10.0
1975-11-16,10.0
1975-11-17,10.0
1975-11-18,10.0
1975-11-19,10.0
1975-11-20,10.0
1975-11-21,15.0
1975-11-22,15.0
1975-11-23,10.0
1975-11-24,10.0
1975-11-25,10.0
1975-11-26,10.0
1975-11-27,10.0
1975-11-28,10.0
1975-11-29,10.0
1975-11-30,10.0
1975-12-01,10.0
1975-12-02,10.0
1975-12-03,10.0
1975-12-04,10.0
1975-12-05,10.0
1975-12-06,10.0
1975-12-07,10.0
1975-12-08,10.0
1975-12-09,8.0
1975-12-10,8.0
1975-12-11,8.0
1975-12-12,8.0
1975-12-13,7.0
1975-12-14,7.0
1975-12-15,7.0
1975-12-16,7.0
1975-12-17,7.0
1975-12-18,7.0
1975-12-19,7.0
1975-12-20,7.0
1975-12-21,7.0
1975-12-22,7.0
1975-12-23,7.0
1975-12-24,7.0
1975-12-25,7.0
1975-12-26,7.0
1975-12-27,7.0
1975-12-28,7.0
1975-12-29,7.0
1975-12-30,7.0
1975-12-31,7.0
1976-01-01,7.0
1976-01-02,7.0
1976-01-03,7.0
1976-01-04,7.0
1976-01-05,7.0
1976-01-06,7.0
1976-01-07,7.0
1976-01-08,7.0
1976-01-09,7.0
1976-01-10,7.0
1976-01-11,7.0
1976-01-12,7.0
1976-01-13,7.0
1976-01-14,7.0
1976-01-15,7.0
1976-01-16,7.0
1976-01-17,7.0
1976-01-18,7.0
1976-01-19,7.0
1976-01-20,7.0
1976-01-21,7.0
1976-01-22,7.0
1976-01-23,7.0
1976-01-24,7.0
1976-01-25,7.0
1976-01-26,7.0
1976-01-27,7.0
1976-01-28,7.0
1976-01-29,7.0
1976-01-30,7.0
1976-01-31,7.0
1976-02-01,7.0
1976-02-02,7.0
1976-02-03,7.0
1976-02-04,7.0
1976-02-05,7.0
1976-02-06,7.0
1976-02-07,7.0
1976-02-08,7.0
1976-02-09,7.0
1976-02-10,7.0
1976-02-11,7.0
1976-02-12,7.0
1976-02-13,7.0
1976-02-14,7.0
1976-02-15,7.0
1976-02-16,7.0
1976-02-17,7.0
1976-02-18,7.0
1976-02-19,7.0
1976-02-20,7.0
1976-02-21,7.0
1976-02-22,7.0
1976-02-23,7.0
1976-02-24,7.0
1976-02-25,7.0
1976-02-26,7.0
1976-02-27,7.0
1976-02-28,7.0
1976-02-29,7.0
1976-03-01,7.0
1976-03-02,7.0
1976-03-03,7.0
1976-03-04,7.0
1976-03-05,7.0
1976-03-06,7.0
1976-03-07,7.0
1976-03-08,7.0
1976-03-09,7.0
1976-03-10,7.0
1976-03-11,7.0
1976-03-12,7.0
1976-03-13,7.0
1976-03-14,7.0
1976-03-15,7.0
1976-03-16,7.0
1976-03-17,7.0
1976-03-18,7.0
1976-03-19,7.0
1976-03-20,7.0
1976-03-21,7.0
1976-03-22,7.0
1976-03-23,7.0
1976-03-24,7.0
1976-03-25,7.0
1976-03-26,7.0
1976-03-27,7.0
1976-03-28,7.0
1976-03-29,7.0
1976-03-30,7.0
1976-03-31,7.0
1976-04-01,7.0
1976-04-02,7.0
1976-04-03,7.0
1976-04-04,7.0
1976-04-05,7.0
1976-04-06,7.0
1976-04-07,7.0
1976-04-08,7.0
1976-04-09,7.0
1976-04-10,7.0
1976-04-11,7.0
1976-04-12,7.0
1976-04-13,7.0
1976-04-14,7.0
1976-04-15,7.0
1976-04-16,7.0
1976-04-17,7.0
1976-04-18,7.0
1976-04-19,7.0
1976-04-20,7.0
1976-04-21,7.0
1976-04-22,7.0
1976-04-23,7.0
1976-04-24,7.0
1976-04-25,7.0
1976-04-26,7.0
1976-04-27,7.0
1976-04-28,7.0
1976-04-29,27.0
1976-04-30,27.0
1976-05-01,27.0
1976-05-02,27.0
1976-05-03,27.0
1976-05-04,67.0
1976-05-05,80.0
1976-05-06,90.0
1976-05-07,65.0
1976-05-08,50.0
1976-05-09,30.0
1976-05-10,30.0
1976-05-11,30.0
1976-05-12,30.0
1976-05-13,30.0
1976-05-14,30.0
1976-05-15,60.0
1976-05-16,80.0
1976-05-17,80.0
1976-05-18,100.0
1976-05-19,100.0
1976-05-20,115.0
1976-05-21,135.0
1976-05-22,125.0
1976-05-23,110.0
1976-05-24,125.0
1976-05-25,155.0
1976-05-26,150.0
1976-05-27,160.0
1976-05-28,160.0
1976-05-29,170.0
1976-05-30,170.0
1976-05-31,170.0
1976-06-01,170.0
1976-06-02,170.0
1976-06-03,170.0
1976-06-04,175.0
1976-06-05,175.0
1976-06-06,175.0
1976-06-07,175.0
1976-06-08,175.0
1976-06-09,175.0
1976-06-10,175.0
1976-06-11,185.0
1976-06-12,185.0
1976-06-13,155.0
1976-06-14,155.0
1976-06-15,155.0
1976-06-16,155.0
1976-06-17,130.0
1976-06-18,130.0
1976-06-19,125.0
1976-06-20,105.0
1976-06-21,105.0
1976-06-22,125.0
1976-06-23,135.0
1976-06-24,135.0
1976-06-25,145.0
1976-06-26,155.0
1976-06-27,165.0
1976-06-28,165.0
1976-06-29,175.0
1976-06-30,200.0
1976-07-01,205.0
1976-07-02,195.0
1976-07-03,195.0
1976-07-04,195.0
1976-07-05,195.0
1976-07-06,195.0
1976-07-07,195.0
1976-07-08,210.0
1976-07-09,210.0
1976-07-10,207.0
1976-07-11,207.0
1976-07-12,207.0
1976-07-13,210.0
1976-07-14,210.0
1976-07-15,210.0
1976-07-16,225.0
1976-07-17,225.0
1976-07-18,230.0
1976-07-19,230.0
1976-07-20,220.0
1976-07-21,200.0
1976-07-22,200.0
1976-07-23,203.0
1976-07-24,203.0
1976-07-25,203.0
1976-07-26,178.0
1976-07-27,183.0
1976-07-28,183.0
1976-07-29,183.0
1976-07-30,193.0
1976-07-31,193.0
1976-08-01,186.0
1976-08-02,186.0
1976-08-03,186.0
1976-08-04,186.0
1976-08-05,186.0
1976-08-06,186.0
1976-08-07,186.0
1976-08-08,186.0
1976-08-09,181.0
1976-08-10,166.0
1976-08-11,166.0
1976-08-12,182.0
1976-08-13,187.0
1976-08-14,187.0
1976-08-15,187.0
1976-08-16,187.0
1976-08-17,167.0
1976-08-18,167.0
1976-08-19,167.0
1976-08-20,167.0
1976-08-21,167.0
1976-08-22,167.0
1976-08-23,167.0
1976-08-24,167.0
1976-08-25,130.0
1976-08-26,120.0
1976-08-27,120.0
1976-08-28,120.0
1976-08-29,145.0
1976-08-30,145.0
1976-08-31,124.0
1976-09-01,124.0
1976-09-02,124.0
1976-09-03,124.0
1976-09-04,124.0
1976-09-05,124.0
1976-09-06,132.0
1976-09-07,132.0
1976-09-08,52.0
1976-09-09,72.0
1976-09-10,72.0
1976-09-11,62.0
1976-09-12,42.0
1976-09-13,42.0
1976-09-14,42.0
1976-09-15,42.0
1976-09-16,42.0
1976-09-17,42.0
1976-09-18,42.0
1976-09-19,42.0
1976-09-20,42.0
1976-09-21,62.0
1976-09-22,62.0
1976-09-23,52.0
1976-09-24,52.0
1976-09-25,52.0
1976-09-26,52.0
1976-09-27,52.0
1976-09-28,42.0
1976-09-29,42.0
1976-09-30,42.0
1976-10-01,42.0
1976-10-02,42.0
1976-10-03,42.0
1976-10-04,27.0
1976-10-05,27.0
1976-10-06,27.0
1976-10-07,27.0
1976-10-08,27.0
1976-10-09,27.0
1976-10-10,27.0
1976-10-11,37.0
1976-10-12,37.0
1976-10-13,37.0
1976-10-14,27.0
1976-10-15,27.0
1976-10-16,27.0
1976-10-17,27.0
1976-10-18,27.0
1976-10-19,27.0
1976-10-20,27.0
1976-10-21,27.0
1976-10-22,27.0
1976-10-23,27.0
1976-10-24,17.0
1976-10-25,17.0
1976-10-26,17.0
1976-10-27,17.0
1976-10-28,17.0
1976-10-29,17.0
1976-10-30,17.0
1976-10-31,17.0
1976-11-01,11.0
1976-11-02,11.0
1976-11-03,11.0
1976-11-04,11.0
1976-11-05,11.0
1976-11-06,11.0
1976-11-07,11.0
1976-11-08,11.0
1976-11-09,11.0
1976-11-10,11.0
1976-11-11,11.0
1976-11-12,11.0
1976-11-13,11.0
1976-11-14,11.0
1976-11-15,11.0
1976-11-16,11.0
1976-11-17,11.0
1976-11-18,11.0